Location: Curupao
(10.4996°N, 66.6442°W)
Time: 04:02:44
(UTC+00:00)

Daily predictions for brighter satellites

Satellite Brightness Start Highest point End
(mag) Time Altitude Azimuth Time Altitude Azimuth Time Altitude Azimuth
Hubble Space Telescope 0.7 00:00:35 10° WSW 00:04:34 79° NNW 00:06:11 34° NE
Resurs 01 Rocket 3.1 00:08:01 22° NE 00:08:01 22° NE 00:10:31 10° NNE
Cosmos 2233 Rocket 4.4 00:03:11 10° NNW 00:09:25 63° W 00:15:37 10° S
Sylda 5 4.1 00:11:52 10° WSW 00:17:16 20° S 00:17:41 20° S
Meteor 2-21 Rocket 4.3 00:13:01 10° S 00:19:14 83° E 00:25:25 10° N
Cosmos 1782 4.0 00:15:43 10° SSW 00:19:16 39° W 00:22:50 10° NNW
Okean O Rocket 3.2 00:24:28 23° NE 00:24:28 23° NE 00:26:33 10° NNE
Delta 7925 Rocket 3.0 00:18:26 10° WSW 00:23:36 80° SSE 00:24:01 72° E
Cosmos 1943 4.3 00:26:43 28° NE 00:26:43 28° NE 00:29:38 10° NNE
Feng Yun 1-1 Rocket 4.3 00:30:17 58° ESE 00:30:50 60° ENE 00:36:38 10° N
Cosmos 1072 Rocket 4.3 00:32:34 10° N 00:38:32 64° E 00:38:32 64° E
IUS R/B (1) 4.4 00:34:51 10° NW 00:38:54 50° NE 00:42:16 37° E
SPOT 1/Viking Rocket 4.1 00:39:31 39° SSW 00:41:06 55° WSW 00:46:09 10° NNW
Cosmos 1943 Rocket 2.7 00:46:03 10° N 00:50:13 47° NNE 00:50:13 47° NNE
CZ-4B R/B 3.4 00:53:17 63° WSW 00:53:28 64° WSW 00:58:46 10° NNW
MOS 1-B 4.4 00:59:03 74° WNW 00:59:03 74° WNW 01:04:29 10° NNW
ATLAS 3B R/B 4.3 00:57:22 10° N 01:01:44 23° NE 01:01:44 23° NE
Palapa 6 Rocket 4.2 00:58:49 10° W 01:04:21 56° WNW 01:04:21 56° WNW
Cosmos 1464 Rocket 4.2 01:03:07 10° N 01:08:45 66° WNW 01:08:45 66° WNW
Cosmos 2278 Rocket 3.3 01:06:10 10° NW 01:11:18 38° WSW 01:11:18 38° WSW
ATLAS 5 CENTAUR R/B 3.6 01:08:26 10° NW 01:14:25 39° WSW 01:15:21 38° SW
ATLAS 5 CENTAUR R/B 4.2 05:36:08 10° WNW 06:38:59 77° S 06:48:25 10° ESE
SL-16 R/B 3.8 07:01:53 35° NE 07:01:53 35° NE 07:06:31 10° N
Cosmos 2360 Rocket 3.8 07:16:21 10° NNE 07:21:15 30° ENE 07:23:20 24° ESE
H-2A R/B 4.5 07:33:02 10° ENE 07:36:32 17° E 07:39:35 11° SE
Cosmos 2297 Rocket 2.4 07:48:13 65° E 07:48:13 65° E 07:53:25 10° NNE
Cosmos 1354 Rocket 4.5 07:49:01 58° NE 07:49:01 58° NE 07:53:21 10° NNE
Cosmos 962 Rocket 4.5 07:53:42 70° SSE 07:54:27 80° E 08:00:45 10° N
Cosmos 2333 Rocket 2.6 07:49:19 10° N 07:54:59 61° ENE 08:00:38 10° SSE
Lacrosse 5 rocket 3.7 07:52:44 10° N 07:55:34 20° NE 07:58:20 10° ESE
Cosmos 1777 Rocket 4.4 07:57:21 55° N 07:57:21 55° N 08:01:26 10° N
Cosmos 2322 Rocket 3.4 07:53:14 10° NNW 07:56:06 31° NNW 07:56:06 31° NNW
COSMOS 2455 2.8 08:07:38 64° WNW 08:07:38 64° WNW 08:13:34 10° NNE
Cosmos 2218 Rocket 4.4 08:07:26 23° SSE 08:11:35 65° E 08:17:51 10° NNE
Cosmos 332 Rocket 3.7 08:15:58 72° S 08:16:27 83° E 08:21:15 10° NNE
CZ-3 R/B 4.2 07:35:17 10° WNW 08:17:55 60° NNE 08:27:54 10° E
CZ-4C R/B 1.8 08:19:12 51° N 08:19:12 51° N 08:22:30 10° NNE
Palapa 6 Rocket 3.0 08:19:32 59° NE 08:19:32 59° NE 08:23:10 10° ESE
Okean 1 Rocket 3.3 08:17:30 10° N 08:20:59 56° NNW 08:20:59 56° NNW
Cosmos 1959 Rocket 4.4 08:20:45 23° S 08:24:46 82° E 08:30:54 10° N
CZ-2C R/B 3.8 08:21:24 10° NNW 08:23:39 22° NW 08:23:39 22° NW
Meteor 1-11 4.2 08:24:24 29° S 08:27:23 87° E 08:33:04 10° N
IRS-1D 4.1 08:22:41 10° N 08:27:19 39° WNW 08:27:19 39° WNW
ARIANE 5 R/B 4.1 07:57:48 10° W 08:29:06 50° SSW 08:35:21 10° SE
GENESIS II 4.3 08:30:21 58° NNW 08:30:21 58° NNW 08:33:29 10° NNE
Hubble Space Telescope 1.5 08:29:33 29° NNW 08:31:10 47° NNE 08:34:59 10° E
CSL-04 DEB 4.2 08:27:23 10° N 08:31:00 66° NW 08:31:00 66° NW
Ariane H10 3.3 08:33:24 16° SE 08:33:24 16° SE 08:34:04 10° ESE
Cosmos 1484 Rocket 2.9 08:29:14 10° NNE 08:32:57 67° E 08:34:13 39° S
Cosmos 1975 Rocket 3.8 08:40:24 34° WNW 08:40:24 34° WNW 08:43:46 10° NNW
OAO 1 4.4 08:37:02 27° WNW 08:40:02 68° SW 08:45:27 10° SE
SL-12 R/B(2) 4.1 08:37:19 30° SW 08:41:03 61° WNW 08:49:01 10° NNE
H-2A R/B 4.1 08:38:44 28° SW 08:41:35 32° SSW 08:54:04 10° SSE
Aureole 1 Rocket 3.4 08:39:41 20° SSE 08:41:52 44° ESE 08:44:55 10° NNE
USA 215 3.3 08:36:14 10° NNE 08:42:40 65° NW 08:46:19 28° SW
RESURS DK-1 2.4 08:39:29 10° NNW 08:43:23 49° WSW 08:44:00 45° SW
SL-16 R/B 4.2 08:46:58 15° WNW 08:46:58 15° WNW 08:48:32 10° WNW
BREEZE-M DEB (TANK) 4.5 08:32:01 23° SW 08:44:35 68° WNW 08:49:40 10° NNE
Cosmos 2341 Rocket 4.4 08:43:05 30° SW 08:45:23 41° W 08:51:13 10° NNW
Sakura Rocket 4.4 08:42:57 25° SSW 08:46:00 42° SSE 08:50:36 10° E
Cosmos 990 Rocket 3.9 08:44:37 26° SSW 08:47:33 70° WNW 08:52:41 10° N
Nadezhda 3 Rocket 4.5 08:42:49 10° NNW 08:48:30 37° W 08:51:49 22° SW
Cosmos 1339 Rocket 4.5 08:42:41 10° N 08:49:01 69° W 08:55:22 10° S
Cosmos 2333 4.4 08:45:19 10° NNW 08:50:46 46° WSW 08:56:15 10° S
Cosmos 1821 Rocket 4.0 08:45:38 10° S 08:51:52 82° E 08:57:59 10° N
Cosmos 2366 rocket 4.3 08:48:02 22° SSW 08:51:53 47° W 08:57:57 10° NNW
Ariane H10-3 2.1 08:52:46 37° S 08:52:48 37° S 08:55:00 10° ESE
Cosmos 1939 Rocket 2.8 08:49:30 10° N 08:53:29 90° ENE 08:56:49 14° SSW
Cosmos 2219 Rocket 2.2 08:50:31 10° NNW 08:56:05 61° WSW 09:01:40 10° S
Cosmos 2219 3.4 08:52:06 10° S 08:57:46 74° ESE 09:03:25 10° NNE
NOSS 3-2 (A) 4.2 08:54:51 10° S 08:59:18 36° ESE 09:03:49 10° NE
Geosat 3.9 08:55:07 10° SSE 09:00:05 69° WSW 09:05:03 10° NNW
Cosmos 2263 Rocket 3.2 08:54:51 10° S 09:00:14 46° ESE 09:05:35 10° NNE
ASTEX 1 4.4 09:00:39 24° WSW 09:01:33 25° W 09:05:32 10° NW
BlueWalker 3 2.8 08:59:38 15° S 09:02:25 42° ESE 09:05:58 10° NE
ATLAS 2AS CENTAUR R/B 3.1 08:57:56 10° NNW 09:04:27 63° ENE 09:10:55 10° SSE
Cosmos 2360 Rocket 3.4 09:00:59 10° WNW 09:04:42 19° W 09:04:42 19° W
COSMOS 2428 3.3 09:00:10 10° N 09:05:46 61° ENE 09:11:23 10° SSE
Chandra Rocket (1) 3.3 09:05:30 19° SW 09:06:32 21° SSW 09:11:31 10° SE
Cosmos 1536 Rocket 3.5 09:03:32 10° S 09:07:55 87° W 09:12:20 10° N
Cosmos 2227 Rocket 2.8 09:04:49 19° SW 09:08:19 38° WNW 09:13:32 10° N
Ariane H10-3 2.3 09:13:27 17° WSW 09:15:30 28° S 09:18:15 10° ESE
H-2A R/B 2.9 09:10:55 10° NNW 09:15:40 32° WNW 09:20:08 11° SW
Cosmos 292 Rocket 3.7 09:14:46 10° SSW 09:19:27 68° WNW 09:24:07 10° N
ARIANE 5 R/B 2.5 09:17:08 10° NNE 09:22:08 88° ESE 09:27:07 10° SSW
Cosmos 1455 Rocket 3.9 09:19:05 10° NNW 09:22:56 30° W 09:26:48 10° SSW
CENTAUR R/B 2.1 09:20:26 10° SW 09:25:04 56° WNW 09:30:23 10° NNE
H-2A R/B 3.0 09:24:29 10° NNW 09:27:22 33° WNW 09:30:17 10° SW
CZ-3 Stage 3 2.7 09:27:06 10° NNW 09:28:44 24° NE 09:31:31 10° E
SL-8 R/B 4.0 09:25:30 10° WNW 09:30:01 43° SW 09:34:33 10° SSE
Delta 128 4.3 09:24:35 11° SW 09:30:32 68° SSE 09:35:45 10° ENE
ASTRO E2 3.1 09:28:03 10° SW 09:31:22 43° SSE 09:34:42 10° ENE
Lacrosse 5 rocket 2.7 09:31:36 10° W 09:33:37 14° WSW 09:35:35 10° SSW
Cosmos 1606 2.4 09:32:56 10° N 09:36:28 76° W 09:40:00 10° S
ARIANE 5 R/B 4.1 09:30:56 10° WSW 09:37:11 19° SSW 09:39:50 10° SSE
ARIANE 5 R/B 4.2 09:14:50 10° W 09:39:35 42° SSW 09:43:57 10° SE
ARIANE 3 DEB 3.6 09:39:26 10° SW 09:40:54 15° S 09:42:23 10° SE
Cosmos 1727 Rocket 4.1 09:36:58 10° N 09:43:15 90° WSW 09:49:35 10° S
NOAA 12 4.2 09:38:49 10° N 09:43:59 64° WNW 09:49:13 10° SSW
JB-3 4.4 09:40:20 10° SSE 09:44:02 76° E 09:47:49 10° N
Centaur AC-72 4.2 09:34:37 10° WNW 10:06:57 89° SSW 10:13:43 10° ESE
